Zurück zum Katalog

THOR ABLESTAR DEB

AktivLEO
NORAD 234·DEBRIS·🇺🇸 United States

Gestartet Jun 29, 1961 von Cape Canaveral Space Force Station

Loading…

Nächste Überflüge (nächste 24 Stunden)

TLE

AktuellSource: Space-Track

Epoche: Sep 13, 2026, 10:28 UTC

1 00234U 61015BS  26256.43675482  .00000185  00000-0  16306-3 0  9995
2 00234  66.8760 301.5682 0063497  61.9675 298.7815 14.04148047323823

Verfolge THOR ABLESTAR DEB in Echtzeit mit AllMySat

Download on the App Store